Lapse_Rate
3.2 3.4 4.1 4.1 4.6 3.3 3.6 3.3 2.6 2.4 4.1 1.4 1.7 2.6 2.9 2.7 2.8 2.4 1.2 -0.2 0.4 0.1 0.4 0.4 0.6 0.5 0.2 0.5 0.6 0.9 1.3 1.5 1.8 1.7 1.3 1.7 2.0 2.2
3.7 3.9 4.1 4.5 4.0 2.8 2.4 2.2 3.1 3.3 4.4 3.6 3.6 1.6 3.0 3.4 2.5 2.4 2.4 1.1 0.2 0.2 0.1 0.7 1.2 0.8 0.6 0.6 0.9 1.2 1.4 1.6 2.0 2.2 2.2 2.2 2.3 2.6
3.7 3.6 3.4 3.8 3.4 3.3 2.5 3.2 2.9 4.2 5.2 3.3 4.3 3.5 2.7 2.9 3.6 2.1 2.6 0.7 -1.1 -0.9 -0.1 0.8 1.4 1.5 1.2 1.0 1.1 1.5 1.6 1.7 2.0 2.2 2.4 2.3 2.5 3.1
4.6 4.0 3.4 3.5 3.2 3.2 2.9 3.3 4.4 4.1 4.0 5.2 2.0 2.8 2.6 2.9 3.3 2.0 2.1 2.3 0.7 -1.1 -0.3 0.0 0.7 1.2 1.1 0.7 1.1 1.7 1.8 1.8 2.0 2.2 2.2 2.5 3.0 3.6
5.0 4.7 4.6 4.4 4.1 4.1 3.3 3.6 3.6 4.2 4.9 4.9 4.2 1.8 2.7 2.3 2.6 1.7 2.4 2.4 1.6 1.6 -0.1 -0.5 -0.6 -0.3 -0.5 0.1 0.7 1.3 1.4 1.4 1.8 2.0 2.2 2.5 3.2 3.9
4.8 4.8 4.8 4.6 5.0 4.7 4.4 3.8 3.6 5.0 3.9 4.2 4.0 2.2 2.1 1.3 2.8 3.1 2.3 1.5 2.4 1.3 -0.7 -0.9 -2.0 -1.5 -1.2 -1.0 -0.9 -0.1 -0.0 -0.1 0.6 1.1 1.6 2.3 3.5 3.6
5.0 5.2 5.1 4.5 3.0 4.6 5.4 5.4 5.0 5.2 5.3 5.3 4.9 2.6 2.2 1.9 3.3 1.8 3.2 1.4 1.1 -0.1 -0.7 -2.4 -2.4 -3.0 -3.1 -3.3 -2.2 -2.3 -1.4 -1.2 -0.8 -0.5 0.2 1.1 2.1 2.5
2.9 5.5 5.7 1.7 1.4 -0.5 0.2 1.4 4.7 6.2 6.2 6.0 5.1 5.4 4.9 4.5 3.3 3.6 3.4 1.6 2.1 0.4 1.4 0.3 -0.8 -1.5 -1.0 -2.2 -2.3 -1.7 -2.2 -2.0 -1.6 -1.3 -1.2 -0.8 0.1 0.8
-1.6 -1.3 4.8 5.0 1.8 3.3 -1.0 -0.8 -0.1 0.4 1.8 5.9 5.7 5.8 5.6 4.9 4.3 3.3 3.4 3.8 4.4 1.5 3.1 2.3 -1.3 0.1 -0.2 -0.4 -1.0 -1.7 -1.7 -1.6 -1.9 -2.0 -1.7 -1.6 -1.0 -0.6
-2.5 -3.4 -1.6 -0.2 0.0 3.6 3.8 3.2 3.6 3.2 1.9 1.7 6.0 6.1 5.8 5.3 5.1 5.0 4.0 3.7 0.0 -1.2 3.5 2.4 -3.8 0.1 -1.9 0.7 0.5 -0.2 -0.9 -1.5 -1.9 -1.9 -2.1 -2.0 -1.9 -1.5
1.1 -0.2 -1.8 -1.0 -5.4 -5.0 3.3 3.6 3.6 3.7 1.0 -0.9 -0.2 1.0 0.4 -0.3 3.2 3.1 0.8 1.1 -2.1 -1.6 -1.8 0.1 -4.5 -4.3 -5.6 -4.4 -0.0 0.6 0.5 -0.4 -1.1 -1.3 -1.5 -1.7 -1.8 -1.8
1.9 2.5 0.3 -1.6 -1.8 -5.5 -2.6 -0.4 3.2 3.0 2.2 0.1 0.9 -0.6 -1.4 0.1 -2.3 3.9 3.8 4.4 -2.4 -1.7 -4.0 0.4 -4.5 -3.7 -1.2 -5.8 -6.7 -2.4 -1.6 -1.5 -0.8 -0.8 -1.6 -1.9 -2.0 -2.3
1.9 1.5 1.1 1.5 2.3 0.1 -4.7 -2.7 -3.8 -4.2 -4.2 -1.3 0.5 1.2 0.5 1.5 1.4 2.7 3.8 3.6 -1.0 -1.9 -3.1 0.0 -4.1 -4.9 -3.2 -2.9 -6.1 -6.7 -4.3 -4.8 -2.7 -2.5 -2.1 -2.1 -2.1 -2.1
1.6 1.5 1.1 0.8 2.8 2.0 1.5 -2.2 -2.9 -4.3 -3.6 -3.7 -3.5 -3.2 -1.9 -1.2 -0.3 -0.2 0.3 0.7 -0.4 2.4 -2.0 -0.9 -3.1 -1.4 -1.7 -3.5 -0.8 -5.9 -6.2 -5.5 -4.0 -4.9 -3.6 -2.9 -2.5 -2.4
3.3 2.5 1.2 1.1 1.8 1.8 2.1 1.3 -0.3 -0.3 -0.8 -1.1 -2.2 -3.0 -4.2 -3.8 -4.9 -5.1 -5.4 -4.8 -5.3 -5.1 -2.1 -1.6 -3.3 -3.6 -1.8 -1.5 -1.8 -3.9 -4.0 -5.0 -5.6 -4.7 -4.5 -4.0 -4.3 -4.1
3.2 2.8 2.4 1.4 1.1 1.9 1.6 1.0 0.9 -0.0 0.0 0.1 -0.8 -1.9 -3.8 -3.1 -2.7 -4.2 -3.6 -4.2 -3.2 -3.9 -5.2 -3.6 -2.8 -2.4 -3.1 -2.6 -1.7 -2.9 -3.7 -1.8 -4.9 -4.6 -4.4 -5.0 -4.1 -3.5
3.0 1.8 1.7 2.3 2.4 1.6 1.9 1.5 0.7 0.7 0.5 -0.9 -0.9 -1.2 -1.9 -1.7 -2.0 -3.2 -3.3 -3.5 -1.9 -2.6 -4.0 -5.4 -4.9 -3.9 -4.3 -3.0 -2.1 -2.5 -3.0 -3.4 -3.8 -3.8 -3.6 -4.0 -4.9 -4.4
4.5 4.0 3.6 3.6 3.6 2.5 1.7 1.0 0.0 0.7 0.6 0.2 -0.4 -0.9 -0.5 -0.8 -0.8 -2.6 -2.7 -2.0 -1.2 -2.1 -2.8 -4.0 -4.3 -3.5 -3.4 -3.1 -3.3 -2.6 -3.1 -2.8 -3.7 -3.8 -3.5 -2.8 -3.2 -4.4
5.4 5.5 4.7 4.1 3.3 3.2 2.8 2.0 0.9 1.0 1.2 1.2 0.9 0.3 -0.8 -0.3 0.1 -0.1 -0.3 -0.9 -0.3 -0.6 -1.8 -3.0 -2.0 -1.6 -0.6 0.4 -4.1 -3.8 -2.5 -3.1 -2.8 -3.2 -3.1 -2.7 -2.4 -3.0
5.8 5.9 5.7 5.4 5.1 5.2 4.9 4.6 3.5 2.1 2.0 1.3 1.2 0.7 0.1 0.6 0.6 1.0 1.2 0.8 0.7 -0.1 -1.1 -1.6 -1.0 0.3 1.6 0.8 -1.8 -3.6 -3.3 -2.5 -1.9 -2.2 -3.4 -3.8 -3.6 -2.6
6.3 6.2 6.1 6.0 6.0 5.8 5.7 5.6 5.3 5.2 4.6 4.4 4.1 3.7 2.3 2.4 2.4 2.0 1.6 0.9 0.6 0.7 1.1 0.2 -0.1 -1.1 -2.0 -1.6 -0.6 -2.7 -3.4 -1.9 -1.5 -0.8 -2.1 -1.6 -1.5 -1.6
6.3 6.3 6.2 6.3 6.1 5.9 5.5 5.4 5.6 5.6 5.5 5.5 5.7 4.5 3.9 4.1 4.3 4.0 3.2 2.8 1.9 1.5 1.7 0.4 -0.4 -0.5 -0.5 0.3 -0.6 -2.0 -2.7 -2.9 -2.5 -1.9 -1.2 -0.5 0.5 0.7
6.2 6.1 6.1 6.0 5.8 5.9 5.7 5.7 5.8 5.8 5.4 4.9 5.8 5.5 5.6 5.3 4.6 4.7 4.0 3.9 3.1 2.8 1.1 0.4 0.6 0.4 0.3 0.4 -0.4 -1.0 -1.2 -1.1 -0.7 0.4 -0.1 -0.7 0.7 1.6
Wind_Speed
16 17 14 13 11 7 6 6 5 5 10 5 4 13 19 19 25 25 25 36 46 47 46 43 40 38 38 36 34 32 31 29 28 27 27 26 24 24
14 18 15 12 12 7 6 4 4 5 7 7 10 6 18 20 22 26 28 29 46 47 45 44 44 42 41 39 39 37 36 34 32 31 31 29 29 27
17 17 18 17 12 10 8 8 5 6 8 4 9 11 12 15 16 22 25 22 25 44 45 45 45 45 43 43 42 41 40 38 37 36 34 32 31 29
20 17 18 13 15 12 9 12 10 8 5 10 5 7 9 14 14 12 14 20 20 32 43 43 45 45 45 44 44 45 44 42 42 41 39 36 32 30
21 21 21 18 17 14 12 11 10 9 10 7 7 2 6 4 6 4 8 11 18 24 40 45 45 43 41 42 44 47 48 47 45 45 44 42 39 36
21 22 22 21 20 18 16 15 12 11 7 8 6 4 3 3 7 9 6 4 7 10 21 28 32 36 39 44 45 47 45 44 44 46 45 44 42 43
20 22 22 23 27 23 14 16 15 12 10 11 10 4 4 3 10 4 8 5 5 4 5 6 10 16 23 28 31 36 41 42 42 42 42 45 48 47
5 20 20 21 21 22 21 19 17 15 15 11 12 11 13 8 6 9 8 4 4 6 7 7 12 8 15 20 31 36 38 37 38 39 39 41 43 44
15 17 13 15 18 18 18 20 20 21 22 17 17 16 16 14 11 9 11 11 10 6 12 10 6 8 13 18 28 34 34 36 37 36 37 38 39 41
16 16 15 6 4 17 21 18 18 16 15 11 17 17 14 13 14 16 16 12 2 2 9 7 3 7 5 16 23 30 34 36 36 35 34 35 35 35
11 12 14 13 18 19 11 18 17 14 10 11 10 10 10 12 12 7 5 5 2 5 5 4 3 2 2 3 15 30 32 34 33 32 33 32 30 31
11 11 15 18 22 20 9 5 9 8 8 5 7 5 7 12 13 16 10 12 3 1 4 5 2 3 1 2 2 11 16 27 30 30 28 28 27 16
6 7 7 18 17 16 11 8 6 6 4 4 6 6 6 8 8 12 12 10 5 4 5 6 3 2 2 2 2 1 6 5 13 15 21 25 26 20
5 4 6 16 19 15 9 10 10 7 5 3 1 2 3 4 5 7 6 6 4 10 9 7 4 6 5 1 3 1 1 4 7 2 9 14 21 27
5 6 10 11 13 8 11 9 7 4 3 4 1 1 1 2 2 3 4 5 5 3 8 10 3 5 4 4 4 3 3 2 2 3 4 5 5 8
4 5 6 7 5 6 6 3 2 1 1 2 2 2 1 2 1 1 2 2 3 0 4 2 5 5 3 2 3 3 2 3 2 3 2 1 7 10
6 3 3 3 4 3 4 4 1 1 2 2 1 2 1 1 2 1 1 1 1 3 2 1 5 6 3 4 2 2 3 2 2 2 2 1 1 2
2 3 4 4 5 4 5 4 1 3 3 3 2 3 2 3 2 1 1 1 2 2 3 2 3 2 2 2 3 3 1 3 2 3 2 3 0 1
3 4 5 5 5 5 4 4 4 3 4 3 3 3 3 1 3 3 3 2 1 1 1 3 4 3 4 5 0 2 3 3 5 3 2 2 2 1
4 5 5 4 5 6 6 5 5 4 3 2 2 3 2 3 2 3 4 4 4 3 2 2 4 6 6 5 4 2 3 4 4 5 3 2 4 8
4 5 5 4 5 5 5 5 4 3 3 2 2 4 4 4 5 5 5 7 6 4 5 6 6 5 4 5 3 2 2 5 2 5 4 4 2 3
5 6 5 6 6 5 4 4 4 4 4 4 5 5 4 4 5 6 6 6 6 6 5 3 6 6 4 3 3 4 2 3 19 22 16 6 4 5
6 6 6 5 5 5 5 5 5 6 5 5 6 5 5 6 5 4 5 5 4 5 2 4 5 3 3 2 6 6 7 7 3 6 4 11 5 9
Wind_Direction
188 187 194 200 203 198 192 175 154 165 206 202 168 200 205 204 209 197 199 208 210 213 213 214 213 211 209 208 207 209 211 215 214 212 215 218 216 218
196 195 201 202 206 203 207 195 184 168 201 195 206 183 201 207 207 201 209 201 208 212 212 212 213 214 213 211 210 211 214 215 215 215 218 219 220 220
199 200 202 205 209 208 205 207 186 196 217 222 204 201 191 201 210 205 209 199 203 208 210 212 214 216 214 214 214 214 217 217 216 217 219 219 220 221
198 197 206 205 213 205 201 206 207 198 185 214 187 194 195 203 204 196 203 202 200 206 208 211 214 216 217 215 214 218 220 221 221 220 221 221 221 219
200 204 205 210 215 215 206 208 208 211 216 220 221 167 207 175 190 194 199 205 200 203 206 211 213 215 216 215 216 219 222 223 223 225 224 224 223 221
204 206 210 205 211 214 214 210 203 202 191 203 211 186 170 191 190 199 205 195 200 182 200 207 211 216 217 219 218 220 221 221 222 225 226 227 228 228
209 208 209 210 204 207 210 214 208 199 202 208 214 182 173 154 192 191 211 189 202 162 179 187 197 209 223 224 225 221 222 222 223 224 224 226 230 231
306 210 215 201 203 200 199 203 207 204 209 207 211 210 211 196 178 195 194 153 210 200 181 207 179 204 215 210 219 221 221 223 223 224 224 224 226 229
38 358 218 213 201 204 202 200 202 204 206 204 211 213 216 210 197 194 198 203 212 201 193 220 185 214 210 222 221 219 220 223 224 225 225 225 227 228
38 23 3 351 299 212 200 210 214 211 213 214 218 221 218 210 206 210 211 209 355 326 194 200 184 217 181 217 219 219 222 224 225 225 225 226 227 231
29 41 22 359 5 6 211 197 208 216 217 216 231 215 192 183 191 170 183 159 215 200 212 143 221 175 189 236 218 218 223 226 226 224 225 228 229 229
8 13 13 11 346 17 31 357 200 211 207 203 223 224 215 197 182 202 193 207 144 108 239 169 130 138 297 237 239 218 217 228 226 226 225 225 222 213
36 1 12 9 349 348 34 26 41 330 315 196 206 211 197 199 199 209 204 199 174 213 185 163 154 154 144 216 297 269 203 195 203 215 224 221 215 201
23 353 2 1 334 0 334 39 28 24 348 5 91 178 192 191 197 201 212 195 200 216 163 170 166 171 165 146 225 2 309 228 173 183 191 198 210 207
340 336 346 337 329 324 337 7 34 18 9 329 334 294 135 302 108 86 59 88 73 68 168 187 152 162 156 171 178 193 161 228 161 153 172 179 170 180
319 317 319 298 259 290 314 349 42 62 303 248 321 292 50 11 342 10 125 122 117 88 32 184 173 146 142 181 151 164 191 182 171 171 144 112 185 182
303 316 316 314 309 310 297 290 280 175 246 235 199 279 83 33 330 332 92 97 174 171 159 54 68 93 64 144 147 160 158 159 154 133 116 95 340 185
289 286 280 267 269 269 269 283 266 254 233 229 211 192 219 163 209 345 41 196 171 190 137 145 128 78 60 20 83 134 112 144 153 140 117 124 229 296
244 266 275 284 282 277 265 267 270 249 248 222 214 223 177 188 158 174 218 180 218 179 156 147 167 149 145 200 46 37 151 166 150 133 123 117 148 236
253 252 255 247 252 259 265 263 266 266 266 257 239 229 212 165 170 206 203 218 196 181 166 155 182 201 196 199 160 188 195 145 164 153 134 97 85 104
277 270 266 254 239 225 227 240 244 242 233 262 289 262 235 202 214 218 226 207 192 182 195 206 210 127 110 100 88 111 32 115 140 154 136 103 110 132
295 278 270 268 268 261 239 228 239 233 228 230 244 246 250 229 215 218 223 221 215 209 204 142 151 148 162 153 133 137 110 88 84 81 68 81 169 179
302 295 291 278 272 269 259 243 228 238 237 226 233 231 219 237 228 219 216 222 214 207 152 160 168 169 160 142 136 143 140 141 126 103 42 47 93 129